Regional Weather Roundup
Issued by NWS

Home | Current Version | Previous Version | Graphics & Text | Print | Product List | Glossary On
Versions: 1 2 3 4 5 6 7 8 9 10 11 12 13 14 15 16 17 18 19 20 21 22 23 24 25 26 27 28
000
ASUS45 KPSR 120510
RWRAZ

ARIZONA HOURLY REGIONAL WEATHER ROUNDUP
NATIONAL WEATHER SERVICE PHOENIX AZ
1000 PM MST MON DEC 11 2017

NOTE: FAIR INDICATES FEW OR NO CLOUDS BELOW 12,000 FEET WITH NO
SIGNIFICANT WEATHER AND/OR OBSTRUCTIONS TO VISIBILITY.

AZZ001>003-036-120600-
NORTHWEST ARIZONA

CITY           SKY/WX    TMP DP  RH WIND       PRES   REMARKS
BULLHEAD CITY  CLEAR     64  -2   7 N20       30.26R
KINGMAN        PTCLDY    37  -3  18 E8        30.36R WCI  31
$$

AZZ004>008-015-016-018-120600-
NORTH CENTRAL ARIZONA

CITY           SKY/WX    TMP DP  RH WIND       PRES   REMARKS
GRAND CANYON   PTCLDY    24 -17  15 NE5       30.48R WCI  18
WILLIAMS       PTCLDY    25  -9  22 S10       30.43S WCI  15
PRESCOTT       PTCLDY    33  -3  21 S6        30.39R WCI  28
FLAGSTAFF      PTCLDY    20  -8  28 CALM      30.46S
PAYSON         CLEAR     48 -15   7 NE5       30.37R
PAGE           PTCLDY    34  15  46 CALM      30.47R HAZE
$$

AZZ009>014-017-120600-
NORTHEAST ARIZONA

CITY           SKY/WX    TMP DP  RH WIND       PRES   REMARKS
WINSLOW        PTCLDY    20  -7  30 SE5       30.46R WCI  13
SAINT JOHNS    CLEAR     21  -3  35 S6        30.46R WCI  13
WINDOW ROCK    CLEAR     17  -8  32 CALM      30.47R
SHOW LOW       CLEAR     27  -2  28 E6        30.47R WCI  20
$$

AZZ540-542>544-546-548-120600-
GREATER PHOENIX AREA

CITY           SKY/WX    TMP DP  RH WIND       PRES   REMARKS
PHOENIX        PTCLDY    59  23  25 CALM      30.20R
BUCKEYE        CLEAR     55  -2   9 N8        30.21S
LUKE AFB       PTCLDY    49  22  35 N9        30.20R
DEER VALLEY    CLEAR     60   5  11 NE9       30.21R
SCOTTSDALE     CLEAR     53  22  29 CALM      30.23R
MESA-GATEWAY   MOCLDY    54   9  16 E8        30.22R
$$

AZZ539-553-120600-
SOUTHWEST MARICOPA COUNTY AND PINAL COUNTY

CITY           SKY/WX    TMP DP  RH WIND       PRES   REMARKS
CASA GRANDE    NOT AVBL
$$

AZZ503-504-507>509-120600-
SOUTHEAST ARIZONA

CITY           SKY/WX    TMP DP  RH WIND       PRES   REMARKS
TUCSON         CLOUDY    58  20  22 CALM      30.26R
DAVIS-MONTHAN  CLOUDY    56  20  24 SE9       30.24R
NOGALES        MOCLDY    54  19  25 SE3       30.29R
SIERRA VISTA   CLOUDY    50  19  29 SE5       30.34R
DOUGLAS        PTCLDY    44  19  36 E3        30.33R
SAFFORD        PTCLDY    43   9  24 E9        30.30R
$$

AZZ532-120600-
SOUTHWEST ARIZONA

CITY           SKY/WX    TMP DP  RH WIND       PRES   REMARKS
YUMA           CLEAR     56   9  15 CALM      30.20S
$$

CAZ041-043-047-048-061-525>527-560>570-120600-
SOUTHERN CALIFORNIA

CITY           SKY/WX    TMP DP  RH WIND       PRES   REMARKS
DOWNTOWN L.A.  CLEAR     57  30  35 CALM      30.19R
L.A. AIRPORT   PTCLDY    59  41  51 CALM      30.19S
SAN DIEGO      PTCLDY    62  25  24 N3        30.18S
BURBANK        CLEAR     56  19  23 CALM      30.20S
ONTARIO        MOCLDY    61  16  17 N5        30.21R
RIVERSIDE      CLEAR     63   8  11 NE5       30.21S
PALM SPRINGS   CLEAR     60  11  14 VRB3      30.25S
EL CENTRO NAS  PTCLDY    51   9  18 VRB3      30.23R
IMPERIAL       CLEAR     56  18  22 SW6       30.21R
BLYTHE         CLEAR     55  -1  10 W3        30.24R
NEEDLES        CLEAR     60  -4   7 NW10      30.28R
$$

NVZ020-UTZ003-120600-
SOUTHERN NEVADA-UTAH

CITY           SKY/WX    TMP DP  RH WIND       PRES   REMARKS
LAS VEGAS      CLEAR     47   2  15 SW5       30.34R
SALT LAKE CITY FOG       26  25  96 CALM      30.60S VSB 1/4
$$

NMZ009-TXZ055-120600-
NEW MEXICO-WEST TEXAS

CITY           SKY/WX    TMP DP  RH WIND       PRES   REMARKS
ALBUQUERQUE    CLOUDY    32   1  26 CALM      30.43R
EL PASO        MOCLDY    42  27  55 CALM      30.35R
$$


........................KEY........................
SKY/WX - SKY CONDITION/WEATHER
TMP    - TEMPERATURE IN FAHRENHEIT
DP     - DEW POINT IN FAHRENHEIT
RH     - RELATIVE HUMIDITY IN PERCENT
WIND   - DIRECTION AND SPEED IN MILES PER HOUR (MPH)
VRB    - VARIABLE WIND DIRECTION
PRES   - MEAN SEA LEVEL PRESSURE IN INCHES OF MERCURY
         F - FALLING PRESSURE   R - RISING PRESSURE
         S - STEADY PRESSURE
VSB    - VISIBILITY IN MILES
HX     - HEAT INDEX IN FAHRENHEIT
WCI    - WIND CHILL INDEX IN FAHRENHEIT
TC     - TEMPERATURE IN CELSIUS WHICH IS ALSO KNOWN AS
         TEMPERATURE IN CENTIGRADE
AFB    - AIR FORCE BASE
         LUKE AFB IS LUKE AIR FORCE BASE
         DAVIS-MONTHAN IS DAVIS-MONTHAN AIR FORCE BASE
NAS    - NAVAL AIR STATION
         EL CENTRO NAS IS EL CENTRO NAVAL AIR STATION
N/A    - NOT AVAILABLE





USA.gov is the U.S. government's official web portal to all federal, state and local government web resources and services.